Location: Peach Mountain Observatory
(42.3967°N, 83.9367°W)
Time: 14:43:25
(UTC-05:00)

Vanguard 1 Rocket - Pass Details

Date: 02 February 2020
Orbit: 650 x 4226 km, 34.3° (Epoch: 22 February)

Event Time Altitude Azimuth Distance (km) Brightness Sun altitude
Rises 07:11:36 0° 209° (SSW) 3,003 9.9 -7.3°
Reaches altitude 10° 07:14:20 10° 189° (S) 2,238 9.5 -6.8°
Maximum altitude 07:17:45 18° 145° (SE) 2,003 10.0 -6.2°
Drops below altitude 10° 07:22:12 10° 104° (ESE) 3,021 12.0 -5.4°
Sets 07:26:46 0° 88° (E) 4,575 12.6 -4.6°
